Lid_Strength_Index
5 5 4 4 3 3 2 3 2 2 1 1 1 1 1 2 2 5 7 6 7 9 10 8 8 10 9 10 13 11 10 10 10 12 12 13 13 11 12 11 10 12 14 15 14 16 16 7 7 11 9 7 7 7
5 5 4 4 3 3 3 2 2 1 1 1 2 2 2 2 2 3 9 6 4 6 8 5 5 4 6 6 9 10 11 11 10 12 11 11 12 11 13 16 10 12 11 13 11 12 8 6 7 8 8 7 6 7
4 4 4 4 4 3 2 2 1 1 1 2 2 2 2 2 1 1 4 5 5 7 7 7 6 4 3 3 3 9 9 7 9 9 11 11 12 11 15 13 11 10 8 12 11 10 9 8 6 5 6 5 5 6
4 4 4 4 4 3 2 1 1 1 2 2 2 2 2 0 0 0 3 4 4 5 8 8 4 5 3 3 3 4 5 4 6 7 10 12 12 9 12 10 11 9 9 11 11 9 8 7 6 6 5 4 4 4
4 4 4 4 3 2 1 1 1 2 2 2 2 1 0 0 1 2 3 3 3 5 9 8 4 3 4 4 4 4 5 7 7 9 9 11 9 9 10 9 11 8 11 12 13 9 9 8 6 5 6 6 6 5
4 4 4 4 2 2 1 1 2 3 2 2 1 1 0 1 1 4 7 2 0 1 6 9 7 6 5 4 5 5 5 7 7 7 8 8 8 8 11 12 8 7 7 7 9 6 6 6 5 5 6 5 5 4
4 4 5 3 2 1 1 2 2 2 3 2 1 1 1 1 4 6 6 3 2 3 7 10 10 7 4 5 5 6 5 6 7 7 8 8 8 8 10 12 10 9 7 6 5 6 7 6 7 5 5 5 6 5
4 4 4 2 2 1 2 2 3 3 2 1 1 1 1 2 3 6 5 3 3 6 5 10 10 8 5 8 8 5 7 7 7 8 8 8 8 10 12 10 9 6 6 6 5 5 5 5 5 5 5 5 6 7
5 4 2 2 2 2 2 2 3 2 1 1 1 1 4 4 6 6 1 2 4 6 9 9 11 12 5 6 6 7 6 10 6 9 8 8 11 12 10 9 8 7 7 7 5 5 5 6 5 5 5 5 5 6
4 2 2 2 2 2 3 4 3 1 2 2 3 4 6 5 0 2 5 6 6 6 7 9 7 10 8 7 9 8 8 10 12 9 8 10 10 10 8 8 6 6 6 5 7 7 6 6 6 6 5 4 4 5
2 2 2 2 3 4 3 3 2 2 2 5 6 5 3 1 5 7 9 8 8 9 7 8 8 9 7 10 10 8 10 10 13 10 10 12 13 9 7 7 5 5 5 5 5 5 5 5 5 5 5 4 4 4
2 2 3 4 4 4 3 2 2 4 4 4 5 4 4 5 6 10 10 8 10 11 8 9 8 7 8 7 9 8 11 10 14 8 11 13 11 9 7 7 6 5 5 5 4 5 4 4 4 4 4 4 4 4
3 3 4 4 4 3 3 2 2 2 3 4 4 6 7 8 12 12 13 12 12 11 8 7 9 7 7 7 9 9 12 13 9 12 13 11 8 7 7 7 5 4 4 4 4 4 4 4 3 4 4 4 3 4
3 3 5 4 4 3 2 2 2 3 5 5 8 13 10 11 10 10 10 9 8 8 8 8 9 8 7 10 10 13 10 10 14 15 14 10 8 7 7 6 5 5 5 5 4 4 4 4 4 3 3 3 4 4
4 5 5 4 3 3 2 2 2 4 4 7 7 11 10 7 6 6 6 6 6 5 7 8 8 8 9 10 10 11 12 14 13 13 10 8 7 6 6 6 5 5 5 5 5 5 4 4 4 4 3 3 3 3
5 5 5 4 3 3 2 3 3 3 4 6 8 10 7 8 8 7 7 7 5 6 6 7 10 11 11 10 12 13 13 15 13 9 7 6 6 6 6 5 5 5 5 5 4 4 4 4 4 4 3 3 3 3
5 7 4 4 3 3 3 5 4 6 6 8 8 6 6 7 7 7 7 7 5 7 9 9 11 11 9 12 12 10 12 10 8 7 6 6 6 6 5 5 5 4 5 4 4 4 4 4 4 4 5 4 3 3
7 4 4 4 5 5 5 6 6 6 8 9 10 8 7 7 7 7 5 5 6 7 8 10 7 11 12 13 12 9 8 7 6 6 6 5 5 5 4 5 4 4 4 4 4 4 4 4 4 4 4 4 3 4
6 5 4 4 5 7 7 6 5 9 8 7 7 7 7 7 5 5 5 5 6 5 6 8 10 11 10 8 8 8 8 7 7 6 5 4 4 4 4 4 4 4 4 4 4 4 4 4 4 3 3 3 4 4
5 5 4 4 5 7 8 8 6 8 9 8 7 7 7 6 5 7 8 7 8 9 8 9 9 8 7 6 6 6 6 6 6 6 6 5 4 4 4 4 4 4 4 4 4 5 4 4 3 3 3 3 4 4
5 5 5 5 6 7 7 8 8 8 9 9 7 7 8 6 8 9 9 7 9 9 9 8 7 6 4 4 4 5 5 4 5 6 8 7 5 4 5 5 6 6 6 5 5 5 5 5 3 3 3 3 3 3
7 5 5 6 8 7 8 8 10 8 8 9 10 9 10 10 10 9 8 9 10 9 8 7 7 6 6 5 4 4 4 4 5 6 6 6 7 7 7 5 5 7 8 7 6 6 5 5 4 4 3 3 3 3
5 5 7 7 10 12 12 8 10 10 10 10 9 10 10 9 8 7 10 9 9 7 7 6 6 6 6 5 4 4 4 4 5 5 6 6 6 6 6 5 5 5 7 7 5 5 6 6 5 4 4 3 3 3
5 7 8 9 11 11 7 9 8 9 9 10 10 12 10 9 7 9 11 10 8 7 7 7 6 6 6 6 6 6 5 4 5 5 6 7 7 7 7 5 5 6 5 5 5 5 5 5 6 4 3 3 3 4
11 11 10 13 8 9 10 10 10 10 10 9 11 10 10 8 10 11 11 9 8 8 7 7 7 8 8 7 6 6 5 5 6 7 7 8 9 9 9 9 8 8 7 8 7 6 5 4 4 5 5 4 4 4
13 9 11 9 9 10 9 10 10 10 9 10 9 8 7 9 10 12 10 8 8 7 6 6 6 7 7 8 8 7 6 6 6 7 7 7 8 9 10 10 11 10 8 8 8 8 8 7 6 6 6 5 7 5
11 9 8 7 7 7 8 7 7 8 9 10 9 9 9 11 13 10 8 6 6 5 4 4 5 5 6 6 6 5 6 6 6 7 7 7 8 8 9 9 10 9 8 8 8 8 8 8 8 7 7 7 7 6
8 7 9 7 7 7 9 9 9 9 9 7 7 9 10 10 10 8 7 6 5 5 5 6 6 6 6 7 7 8 8 7 7 7 8 8 8 8 8 8 7 8 7 7 8 7 7 7 6 6 6 7 7 7
8 6 7 8 8 8 8 8 8 7 6 7 9 9 9 8 7 8 8 7 5 6 7 7 7 6 7 7 7 8 8 8 9 10 11 11 10 10 9 9 8 8 8 8 9 8 7 7 6 6 5 6 6 6
8 5 8 8 8 9 7 6 7 6 6 5 6 7 7 8 8 7 7 6 6 8 7 7 7 8 9 9 9 9 9 9 9 10 12 12 11 10 10 9 9 9 9 9 9 9 9 7 7 7 7 8 8 8
6 6 7 7 8 7 5 4 4 5 5 5 5 6 7 7 6 6 5 6 7 7 7 8 8 8 9 9 10 11 11 10 9 10 11 11 11 10 10 10 10 9 9 9 9 9 9 9 9 8 8 8 8 9
6 7 8 9 8 6 5 6 6 6 6 6 7 6 6 6 7 5 6 6 7 8 8 8 9 9 8 8 9 10 10 10 9 10 10 10 10 10 10 10 10 9 9 9 9 10 10 10 10 10 10 10 9 9
7 7 7 7 8 8 6 6 7 7 7 7 7 7 6 6 8 7 5 5 7 8 9 9 8 8 7 7 8 8 8 8 8 9 9 9 10 11 11 11 10 9 9 9 10 10 10 10 10 10 10 10 10 10